• In Romania
  • List of Countries
  • For 7 days
  • Water Temperature
  • Satellite Maps
  • Weather Map
  • Weather Widgets
  • user-avatar
    Login

    Hourly Weather Ilchigulovo

    Today, 22 October, Monday

    Time Temperature Precipitation Wind Pressure Humidity
    00:00 -1°C° 0 mm 3 mps 729 mmHg 73%
    01:00 -2°C° 0 mm 3 mps 729 mmHg 72%
    02:00 -2°C° 0 mm 3 mps 729 mmHg 74%
    03:00 -2°C° 0 mm 3 mps 729 mmHg 75%
    04:00 -2°C° 0 mm 2 mps 730 mmHg 77%
    05:00 -2°C° 0 mm 2 mps 730 mmHg 78%
    06:00 -2°C° 0 mm 2 mps 730 mmHg 79%
    07:00 -2°C° 0 mm 3 mps 730 mmHg 80%
    08:00 -1°C° 0 mm 3 mps 730 mmHg 76%
    09:00 0°C° 0 mm 3 mps 731 mmHg 71%
    10:00 +1°C° 0 mm 3 mps 731 mmHg 66%
    11:00 +1°C° 0 mm 3 mps 731 mmHg 64%
    12:00 +1°C° 0 mm 3 mps 731 mmHg 62%
    13:00 +3°C° 0 mm 2 mps 731 mmHg 59%
    14:00 +3°C° 0 mm 2 mps 730 mmHg 62%
    15:00 +2°C° 0 mm 2 mps 730 mmHg 64%
    16:00 +3°C° 0 mm 1 mps 730 mmHg 66%
    17:00 +2°C° 0 mm 1 mps 730 mmHg 70%
    18:00 +1°C° 0 mm 1 mps 730 mmHg 74%
    19:00 +1°C° 0 mm 1 mps 729 mmHg 77%
    20:00 -1°C° 0 mm 2 mps 729 mmHg 78%
    21:00 -1°C° 0 mm 2 mps 729 mmHg 78%
    22:00 -1°C° 0 mm 2 mps 729 mmHg 78%
    23:00 -1°C° 0 mm 2 mps 728 mmHg 79%

    Tomorrow, 23 October, Tuesday

    Time Temperature Precipitation Wind Pressure Humidity
    00:00 -1°C° 0 mm 3 mps 728 mmHg 79%
    01:00 -1°C° 0 mm 3 mps 727 mmHg 80%
    02:00 -1°C° 0 mm 3 mps 727 mmHg 81%
    03:00 -1°C° 0 mm 3 mps 727 mmHg 82%
    04:00 -1°C° 0 mm 3 mps 727 mmHg 83%
    05:00 -1°C° 0 mm 3 mps 727 mmHg 83%
    06:00 -1°C° 0 mm 3 mps 726 mmHg 82%
    07:00 -1°C° 0 mm 3 mps 726 mmHg 82%
    08:00 -1°C° 0 mm 4 mps 726 mmHg 74%
    09:00 +1°C° 0 mm 4 mps 726 mmHg 67%
    10:00 +4°C° 0 mm 4 mps 726 mmHg 59%
    11:00 +5°C° 0 mm 4 mps 726 mmHg 58%
    12:00 +6°C° 0 mm 4 mps 726 mmHg 58%
    13:00 +7°C° 0 mm 4 mps 726 mmHg 58%
    14:00 +6°C° 0 mm 4 mps 725 mmHg 62%
    15:00 +5°C° 0 mm 3 mps 725 mmHg 67%
    16:00 +5°C° 0 mm 3 mps 725 mmHg 71%
    17:00 +4°C° 0 mm 3 mps 725 mmHg 73%
    18:00 +3°C° 0 mm 3 mps 724 mmHg 75%
    19:00 +2°C° 0 mm 3 mps 724 mmHg 77%
    20:00 +2°C° 0 mm 3 mps 724 mmHg 74%
    21:00 +2°C° 0 mm 3 mps 723 mmHg 71%
    22:00 +2°C° 0 mm 3 mps 723 mmHg 69%
    23:00 +2°C° 0 mm 3 mps 722 mmHg 69%

    Day after tomorrow, 24 October, Wednesday

    Time Temperature Precipitation Wind Pressure Humidity
    00:00 +2°C° 0 mm 3 mps 722 mmHg 69%
    01:00 +2°C° 0 mm 3 mps 722 mmHg 69%
    02:00 +2°C° 0 mm 3 mps 721 mmHg 74%
    03:00 +2°C° 0 mm 3 mps 721 mmHg 78%
    04:00 +2°C° 0 mm 3 mps 721 mmHg 82%
    05:00 +1°C° 0.2 mm 4 mps 721 mmHg 84%
    06:00 +3°C° 0.2 mm 4 mps 720 mmHg 86%
    07:00 +3°C° 0.2 mm 4 mps 720 mmHg 87%
    08:00 +4°C° 0.2 mm 4 mps 720 mmHg 86%
    09:00 +5°C° 0.2 mm 5 mps 720 mmHg 85%
    10:00 +5°C° 0.2 mm 5 mps 720 mmHg 84%
    11:00 +6°C° 0.5 mm 5 mps 720 mmHg 84%
    12:00 +6°C° 0.5 mm 5 mps 720 mmHg 84%
    13:00 +6°C° 0.5 mm 5 mps 720 mmHg 83%
    14:00 +6°C° 0.2 mm 5 mps 720 mmHg 83%
    15:00 +6°C° 0.2 mm 4 mps 720 mmHg 83%
    16:00 +7°C° 0.2 mm 4 mps 720 mmHg 83%
    17:00 +6°C° 0.2 mm 4 mps 720 mmHg 82%
    18:00 +6°C° 0.2 mm 4 mps 720 mmHg 81%
    19:00 +5°C° 0.2 mm 4 mps 720 mmHg 80%
    20:00 +5°C° 0 mm 4 mps 720 mmHg 81%
    21:00 +5°C° 0 mm 4 mps 720 mmHg 82%
    22:00 +4°C° 0 mm 3 mps 720 mmHg 83%
    23:00 +4°C° 0 mm 3 mps 720 mmHg 84%

    25 October, Thursday

    Time Temperature Precipitation Wind Pressure Humidity
    00:00 +4°C° 0 mm 3 mps 720 mmHg 85%
    01:00 +4°C° 0 mm 3 mps 720 mmHg 86%
    02:00 +4°C° 0 mm 3 mps 720 mmHg 87%
    03:00 +3°C° 0 mm 3 mps 720 mmHg 89%
    04:00 +3°C° 0 mm 3 mps 720 mmHg 90%
    05:00 +3°C° 0 mm 3 mps 720 mmHg 91%
    06:00 +3°C° 0 mm 3 mps 720 mmHg 91%
    07:00 +4°C° 0 mm 2 mps 720 mmHg 92%
    08:00 +4°C° 0 mm 3 mps 721 mmHg 88%
    09:00 +7°C° 0 mm 3 mps 721 mmHg 83%
    10:00 +7°C° 0 mm 4 mps 721 mmHg 79%
    11:00 +8°C° 0 mm 4 mps 721 mmHg 75%
    12:00 +10°C° 0 mm 4 mps 721 mmHg 71%
    13:00 +10°C° 0 mm 5 mps 720 mmHg 67%
    14:00 +11°C° 0 mm 4 mps 720 mmHg 69%
    15:00 +10°C° 0 mm 4 mps 720 mmHg 70%
    16:00 +10°C° 0 mm 3 mps 720 mmHg 71%
    17:00 +8°C° 0 mm 4 mps 720 mmHg 70%
    18:00 +7°C° 0 mm 4 mps 720 mmHg 70%
    19:00 +7°C° 0 mm 4 mps 720 mmHg 69%
    20:00 +6°C° 0 mm 4 mps 720 mmHg 69%
    21:00 +6°C° 0 mm 4 mps 720 mmHg 70%
    22:00 +6°C° 0 mm 4 mps 720 mmHg 70%
    23:00 +5°C° 0 mm 3 mps 719 mmHg 70%

    26 October, Friday

    Time Temperature Precipitation Wind Pressure Humidity
    00:00 +5°C° 0 mm 3 mps 719 mmHg 71%
    01:00 +5°C° 0 mm 3 mps 719 mmHg 71%
    02:00 +4°C° 0 mm 3 mps 718 mmHg 72%
    03:00 +4°C° 0 mm 3 mps 718 mmHg 72%
    04:00 +4°C° 0 mm 3 mps 718 mmHg 73%
    05:00 +4°C° 0 mm 3 mps 717 mmHg 74%
    06:00 +4°C° 0 mm 3 mps 717 mmHg 75%
    07:00 +3°C° 0 mm 3 mps 716 mmHg 76%
    08:00 +5°C° 0 mm 4 mps 716 mmHg 72%
    09:00 +6°C° 0 mm 4 mps 716 mmHg 67%
    10:00 +8°C° 0 mm 5 mps 715 mmHg 63%
    11:00 +9°C° 0 mm 5 mps 715 mmHg 60%
    12:00 +10°C° 0 mm 6 mps 714 mmHg 56%
    13:00 +11°C° 0 mm 6 mps 714 mmHg 53%
    14:00 +11°C° 0 mm 6 mps 713 mmHg 54%
    15:00 +11°C° 0 mm 6 mps 713 mmHg 56%
    16:00 +12°C° 0 mm 5 mps 712 mmHg 57%
    17:00 +10°C° 0.2 mm 5 mps 712 mmHg 59%
    18:00 +10°C° 0.2 mm 5 mps 712 mmHg 61%
    19:00 +9°C° 0.2 mm 5 mps 712 mmHg 63%
    20:00 +10°C° 0.9 mm 4 mps 711 mmHg 70%
    21:00 +9°C° 0.9 mm 3 mps 711 mmHg 77%
    22:00 +8°C° 0.9 mm 3 mps 711 mmHg 84%
    23:00 +8°C° 0.3 mm 3 mps 711 mmHg 85%

    27 October, Saturday

    Time Temperature Precipitation Wind Pressure Humidity
    00:00 +8°C° 0.3 mm 3 mps 711 mmHg 87%
    01:00 +7°C° 0.3 mm 3 mps 711 mmHg 88%
    02:00 +7°C° 1.4 mm 3 mps 712 mmHg 85%
    03:00 +5°C° 1.4 mm 4 mps 712 mmHg 83%
    04:00 +4°C° 1.4 mm 4 mps 712 mmHg 80%
    05:00 +4°C° 0.4 mm 4 mps 712 mmHg 81%
    06:00 +4°C° 0.4 mm 3 mps 713 mmHg 82%
    07:00 +5°C° 0.4 mm 2 mps 713 mmHg 83%
    08:00 +4°C° 0 mm 3 mps 714 mmHg 79%
    09:00 +4°C° 0 mm 4 mps 714 mmHg 75%
    10:00 +5°C° 0 mm 5 mps 714 mmHg 71%
    11:00 +5°C° 0 mm 5 mps 715 mmHg 68%
    12:00 +5°C° 0 mm 5 mps 715 mmHg 65%
    13:00 +5°C° 0 mm 5 mps 715 mmHg 62%
    14:00 +3°C° 0 mm 5 mps 716 mmHg 64%
    15:00 +4°C° 0 mm 4 mps 716 mmHg 67%
    16:00 +3°C° 0 mm 3 mps 716 mmHg 69%
    17:00 +3°C° 0 mm 3 mps 717 mmHg 73%
    18:00 +2°C° 0 mm 3 mps 717 mmHg 76%
    19:00 +2°C° 0 mm 3 mps 718 mmHg 80%
    20:00 +1°C° 0 mm 3 mps 718 mmHg 80%
    21:00 0°C° 0 mm 4 mps 719 mmHg 80%
    22:00 -1°C° 0 mm 4 mps 719 mmHg 79%
    23:00 -1°C° 0 mm 4 mps 720 mmHg 79%

    28 October, Sunday

    Time Temperature Precipitation Wind Pressure Humidity
    00:00 -2°C° 0 mm 4 mps 720 mmHg 78%
    01:00 -2°C° 0 mm 4 mps 721 mmHg 78%
    02:00 -2°C° 0 mm 4 mps 721 mmHg 77%
    03:00 -2°C° 0 mm 4 mps 722 mmHg 76%
    04:00 -3°C° 0 mm 4 mps 723 mmHg 75%
    05:00 -3°C° 0 mm 4 mps 723 mmHg 74%
    06:00 -3°C° 0 mm 4 mps 723 mmHg 74%
    07:00 -3°C° 0 mm 4 mps 724 mmHg 73%
    08:00 -2°C° 0 mm 4 mps 724 mmHg 69%
    09:00 -1°C° 0 mm 5 mps 725 mmHg 66%
    10:00 -1°C° 0 mm 5 mps 725 mmHg 62%
    11:00 0°C° 0 mm 5 mps 725 mmHg 62%
    12:00 -1°C° 0 mm 6 mps 725 mmHg 61%
    13:00 +1°C° 0 mm 6 mps 726 mmHg 61%
    14:00 +1°C° 0 mm 5 mps 726 mmHg 64%
    15:00 +1°C° 0 mm 5 mps 726 mmHg 67%
    16:00 +1°C° 0 mm 4 mps 725 mmHg 70%
    17:00 +1°C° 0.1 mm 5 mps 725 mmHg 71%
    18:00 +1°C° 0.1 mm 5 mps 725 mmHg 73%
    19:00 +1°C° 0.1 mm 6 mps 725 mmHg 75%
    20:00 +2°C° 0.2 mm 6 mps 724 mmHg 76%
    21:00 +2°C° 0.2 mm 6 mps 724 mmHg 77%
    22:00 +2°C° 0.2 mm 6 mps 724 mmHg 79%
    23:00 +3°C° 0.3 mm 6 mps 724 mmHg 80%
    Show more